Location: Hillern
(53.0557°N, 9.8577°E)
Time: 22:08:18
(UTC+00:00)

Cosmos 1980 Rocket - Pass Details

Date: 19 May 2025
Orbit: 829 x 847 km, 71.0° (Epoch: 15 June)

Event Time Altitude Azimuth Distance (km) Brightness Sun altitude
Rises 20:44:28 0° 328° (NNW) 3,384 7.7 -9.9°
Reaches altitude 10° 20:46:55 10° 329° (NNW) 2,447 6.2 -10.1°
Maximum altitude 20:52:33 82° 58° (ENE) 846 2.2 -10.6°
Enters shadow 20:57:20 15° 146° (SE) 2,133 3.6 -11.0°
